Weather reports worldwide

Advertisment
Dansville, ny, United States of America (2072123): temperature & dewpoint: 13.02.2020 07:00:00 - 19.02.2020 07:00:00 (EST)Dansville, ny, United States of America (2072123): wind speed & gusts: 13.02.2020 07:00:00 - 19.02.2020 07:00:00 (EST)Dansville, ny, United States of America (2072123): wind direction: 13.02.2020 07:00:00 - 19.02.2020 07:00:00 (EST)Dansville, ny, United States of America (2072123): reduced air pressure: 13.02.2020 07:00:00 - 19.02.2020 07:00:00 (EST)Dansville, ny, United States of America (2072123): visibility: 13.02.2020 07:00:00 - 19.02.2020 07:00:00 (EST)Dansville, ny, United States of America (2072123): precipitation: 13.02.2020 07:00:00 - 19.02.2020 07:00:00 (EST)
Date & Time tt [°C] td [°C] ff [km/h] ff [kn] fx [km/h] fx [kn] dd ppp [hPa] vv [km] rr [mm]
19.02.2020 07:00:00 0,6 -7,2 24 13 - - WNW 1025,1 16 -
19.02.2020 06:00:00 0,6 -6,7 16 9 - - W 1024,1 16 -
19.02.2020 05:00:00 1,1 -5,0 18 10 - - WNW 1023,4 16 -
19.02.2020 04:00:00 1,1 -4,4 11 6 - - NW 1022,5 16 -
19.02.2020 03:00:00 1,1 -5,0 16 9 - - NNW 1022,2 16 -
19.02.2020 02:00:00 0,6 -5,0 11 6 - - NW 1021,8 16 -
19.02.2020 01:00:00 1,1 -5,0 21 11 - - NNW 1021,6 16 -
19.02.2020 00:00:00 2,2 -3,9 0 0 - - N 1020,9 16 -
18.02.2020 23:00:00 1,7 -3,3 9 5 - - NNW 1020,6 16 -
18.02.2020 22:00:00 3,3 -2,8 5 3 - - NNW 1020,0 16 -
18.02.2020 21:00:00 3,9 -1,7 11 6 - - WNW 1018,8 16 -
18.02.2020 20:00:00 4,4 -1,1 9 5 - - W 1018,4 16 -
18.02.2020 19:00:00 5,6 0,0 11 6 - - - 1017,9 16 -
18.02.2020 18:00:00 6,1 2,2 22 12 - - NW 1016,4 16 -
18.02.2020 17:00:00 7,8 2,2 5 3 - - - 1014,9 16 0,0
18.02.2020 16:00:00 8,3 4,4 5 3 - - WSW 1014,2 16 0,3
18.02.2020 15:00:00 8,3 3,3 15 8 - - SSE 1013,4 16 -
18.02.2020 14:00:00 7,8 2,8 18 10 - - S 1013,3 16 -
18.02.2020 13:00:00 7,2 1,7 21 11 54 29 SSE 1013,5 16 -
18.02.2020 12:00:00 6,7 1,1 37 20 55 30 SSE 1013,5 16 -
18.02.2020 11:00:00 5,6 0,6 35 19 65 35 SSE 1014,3 16 -
18.02.2020 10:00:00 3,9 0,0 26 14 52 28 SSE 1015,2 16 0,0
18.02.2020 09:00:00 2,2 0,0 22 12 48 26 SE 1015,7 10 1,3
18.02.2020 08:00:00 2,2 0,0 31 17 52 28 SSE 1016,4 8 1,0
18.02.2020 07:00:00 2,2 0,0 28 15 50 27 SSE 1016,7 8 1,0
18.02.2020 06:00:00 1,7 0,0 26 14 - - SSE 1017,5 10 0,5
18.02.2020 05:00:00 1,1 -0,6 18 10 48 26 SE 1018,7 3,2 0,0
18.02.2020 04:00:00 1,7 -2,8 16 9 - - SSE 1019,1 16 -
18.02.2020 03:00:00 0,0 -1,1 13 7 - - SSE 1021,6 16 0,0
18.02.2020 02:00:00 0,0 -2,2 13 7 - - SE 1022,7 4,8 0,0
18.02.2020 01:00:00 1,1 -5,6 16 9 - - SSE 1024,0 16 -
18.02.2020 00:00:00 0,0 -6,1 13 7 - - SSE 1024,4 16 -
17.02.2020 23:00:00 -0,6 -6,7 21 11 - - SE 1026,1 16 -
17.02.2020 22:00:00 -1,7 -6,7 16 9 - - ESE 1026,7 16 -
17.02.2020 21:00:00 -1,7 -6,7 16 9 - - SE 1026,9 16 -
17.02.2020 20:00:00 -1,1 -7,2 16 9 - - SE 1027,0 16 -
17.02.2020 19:00:00 -1,1 -7,2 13 7 - - SSE 1027,1 16 -
17.02.2020 18:00:00 0,0 -6,1 0 0 - - N 1026,7 16 -
17.02.2020 17:00:00 1,1 -5,6 9 5 - - NW 1026,8 16 -
17.02.2020 16:00:00 2,2 -5,6 15 8 - - NW 1027,5 16 -
17.02.2020 15:00:00 1,7 -5,6 15 8 - - NW 1026,8 16 -
17.02.2020 14:00:00 1,7 -5,6 13 7 - - NW 1026,9 16 -
17.02.2020 13:00:00 1,1 -5,6 11 6 - - NW 1027,4 16 -
17.02.2020 12:00:00 0,0 -5,0 13 7 - - NNW 1028,0 16 -
17.02.2020 11:00:00 -0,6 -4,4 16 9 - - NW 1027,6 16 -
17.02.2020 10:00:00 0,0 -4,4 13 7 - - NW 1027,0 16 -
17.02.2020 09:00:00 -0,6 -3,9 8 4 - - NW 1026,3 11 -
17.02.2020 08:00:00 -2,2 -4,4 0 0 - - N 1025,2 11 -
17.02.2020 07:00:00 -2,2 -4,4 - - - - - 1024,3 15 -
17.02.2020 06:00:00 -2,2 -4,4 9 5 - - SSE 1023,7 16 -
17.02.2020 05:00:00 -2,2 -4,4 5 3 - - SSE 1023,3 15 -
17.02.2020 04:00:00 -3,3 -5,0 9 5 - - SE 1022,5 15 -
17.02.2020 03:00:00 -4,4 -5,6 8 4 - - S 1022,1 13 -
17.02.2020 02:00:00 -3,9 -5,6 5 3 - - S 1022,1 11 -
17.02.2020 01:00:00 -3,3 -5,0 0 0 - - N 1021,7 15 -
17.02.2020 00:00:00 -3,3 -4,4 0 0 - - N 1021,3 13 -
16.02.2020 23:00:00 -1,7 -3,3 0 0 - - N 1020,8 15 -
16.02.2020 22:00:00 -1,7 -3,3 8 4 - - SE 1020,4 15 -
16.02.2020 21:00:00 -1,7 -3,3 0 0 - - N 1020,0 16 -
16.02.2020 20:00:00 0,0 -2,8 0 0 - - N 1019,1 16 -
16.02.2020 19:00:00 2,8 -2,2 0 0 - - N 1019,0 16 -
16.02.2020 18:00:00 2,8 -2,2 0 0 - - N 1018,6 16 -
16.02.2020 17:00:00 3,3 -1,7 13 7 - - NNW 1017,8 16 -
16.02.2020 16:00:00 4,4 -1,7 18 10 - - NNW 1017,4 16 -
16.02.2020 15:00:00 6,1 -3,3 11 6 - - NW 1017,0 16 -
16.02.2020 14:00:00 5,6 -2,8 9 5 - - - 1017,0 16 -
16.02.2020 13:00:00 5,0 -2,8 11 6 - - - 1017,7 16 -
16.02.2020 12:00:00 4,4 -2,8 5 3 - - - 1018,5 16 -
16.02.2020 11:00:00 3,3 -2,8 11 6 - - SSW 1018,8 16 -
16.02.2020 10:00:00 3,3 -2,8 9 5 - - S 1019,1 16 -
16.02.2020 09:00:00 2,8 -2,8 0 0 - - N 1019,2 16 -
16.02.2020 08:00:00 2,8 -2,8 5 3 - - SW 1019,0 16 -
16.02.2020 07:00:00 2,2 -2,8 5 3 - - S 1018,7 16 -
16.02.2020 06:00:00 2,2 -2,8 5 3 - - - 1019,0 16 -
16.02.2020 05:00:00 2,2 -3,3 8 4 - - - 1019,1 16 -
16.02.2020 04:00:00 2,2 -4,4 8 4 - - SSE 1019,0 16 -
16.02.2020 03:00:00 0,6 -7,2 13 7 - - ESE 1019,3 16 -
16.02.2020 02:00:00 0,0 -8,3 0 0 - - N 1019,5 16 -
16.02.2020 01:00:00 1,1 -8,3 9 5 - - SE 1019,4 16 -
16.02.2020 00:00:00 1,1 -8,9 11 6 - - SE 1019,7 16 -
15.02.2020 23:00:00 1,1 -10,6 11 6 - - SSE 1019,8 16 -
15.02.2020 22:00:00 0,0 -10,0 16 9 - - SE 1020,1 16 -
15.02.2020 21:00:00 0,0 -10,6 22 12 - - SE 1020,0 16 -
15.02.2020 20:00:00 0,0 -11,1 29 16 - - SE 1020,7 16 -
15.02.2020 19:00:00 0,6 -11,7 24 13 - - SSE 1021,6 16 -
15.02.2020 18:00:00 0,6 -11,7 22 12 - - SE 1022,5 16 -
15.02.2020 17:00:00 1,1 -12,2 16 9 - - S 1023,7 16 -
15.02.2020 16:00:00 1,1 -12,8 21 11 - - S 1024,2 16 -
15.02.2020 15:00:00 0,6 -13,3 18 10 - - SSE 1025,3 16 -
15.02.2020 14:00:00 0,0 -13,9 15 8 - - SE 1026,8 16 -
15.02.2020 13:00:00 -1,7 -14,4 15 8 - - SSE 1027,8 16 -
15.02.2020 12:00:00 -3,9 -14,4 22 12 - - SSE 1030,2 16 -
15.02.2020 11:00:00 -6,7 -14,4 15 8 - - ESE 1031,2 16 -
15.02.2020 10:00:00 -11,1 -17,2 21 11 - - SE 1033,6 16 -
15.02.2020 09:00:00 -15,6 -20,0 18 10 - - SE 1035,2 16 -
15.02.2020 08:00:00 -17,8 -21,7 16 9 - - SE 1036,2 16 -
15.02.2020 07:00:00 -18,3 -22,2 15 8 - - ESE 1036,2 16 -
15.02.2020 06:00:00 -18,9 -22,2 16 9 - - ESE 1036,4 16 -
15.02.2020 05:00:00 -18,3 -22,2 16 9 - - ESE 1036,3 16 -
15.02.2020 04:00:00 -18,3 -21,7 16 9 - - SE 1037,0 16 -
15.02.2020 03:00:00 -17,8 -21,7 18 10 - - ESE 1037,5 16 -
15.02.2020 02:00:00 -17,8 -21,1 18 10 - - SE 1037,7 16 -
15.02.2020 01:00:00 -17,2 -20,6 13 7 - - SE 1037,6 16 -
15.02.2020 00:00:00 -17,2 -20,6 15 8 - - ESE 1037,3 16 -
14.02.2020 23:00:00 -16,7 -20,0 16 9 - - SE 1037,7 16 -
14.02.2020 22:00:00 -15,6 -19,4 8 4 - - SE 1038,0 16 -
14.02.2020 21:00:00 -15,0 -19,4 11 6 - - SSE 1037,4 16 -
14.02.2020 20:00:00 -15,0 -18,3 9 5 - - SSE 1037,4 16 -
14.02.2020 19:00:00 -13,9 -18,3 0 0 - - N 1037,3 16 -
14.02.2020 18:00:00 -11,7 -19,4 0 0 - - N 1036,4 16 -
14.02.2020 17:00:00 -10,6 -18,9 13 7 - - NW 1036,1 16 -
14.02.2020 16:00:00 -10,6 -18,9 13 7 - - NNW 1035,4 16 -
14.02.2020 15:00:00 -10,6 -18,3 18 10 - - N 1034,9 16 0,0
14.02.2020 14:00:00 -11,1 -18,9 13 7 - - NNW 1034,6 16 -
14.02.2020 13:00:00 -11,7 -18,9 13 7 - - N 1034,8 16 -
14.02.2020 12:00:00 -12,2 -18,3 18 10 - - NNW 1034,8 10 -
14.02.2020 11:00:00 -12,8 -17,8 16 9 - - NNW 1034,1 16 -
14.02.2020 10:00:00 -13,3 -18,3 15 8 - - NNW 1033,3 15 -
14.02.2020 09:00:00 -14,4 -18,9 18 10 - - WNW 1032,5 16 -
14.02.2020 08:00:00 -15,0 -18,3 16 9 - - NW 1031,1 16 -
14.02.2020 07:00:00 -13,9 -17,8 18 10 - - NNW 1029,6 13 -
14.02.2020 06:00:00 -13,3 -16,7 22 12 - - NNW 1028,0 16 0,0
14.02.2020 05:00:00 -11,7 -15,6 22 12 - - NNW 1026,7 16 0,0
14.02.2020 04:00:00 -11,1 -15,0 24 13 - - NNW 1025,1 15 0,0
14.02.2020 03:00:00 -10,0 -12,8 18 10 - - NNW 1024,4 3,2 0,0
14.02.2020 02:00:00 -8,9 -12,2 21 11 - - NW 1022,6 11 0,0
14.02.2020 01:00:00 -7,8 -11,7 28 15 - - NW 1021,3 16 -
14.02.2020 00:00:00 -6,7 -10,0 26 14 - - NNW 1020,2 16 0,0
13.02.2020 23:00:00 -5,6 -8,9 26 14 - - NNW 1018,7 6 0,0
13.02.2020 22:00:00 -4,4 -6,7 31 17 - - NNW 1017,5 13 0,0
13.02.2020 21:00:00 -2,2 -4,4 26 14 - - NNW 1015,5 6 0,0
13.02.2020 20:00:00 -1,7 -3,3 22 12 - - NNW 1014,2 11 0,0
13.02.2020 19:00:00 0,6 -1,7 0 0 - - N 1013,0 10 0,0
13.02.2020 18:00:00 0,6 -1,7 0 0 - - N 1011,9 16 0,0
13.02.2020 17:00:00 1,1 -0,6 5 3 - - NNW 1010,4 10 0,3
13.02.2020 16:00:00 0,6 -0,6 5 3 - - NW 1009,4 3,2 0,0
13.02.2020 15:00:00 0,6 -1,1 5 3 - - WNW 1008,0 2,8 0,0
13.02.2020 14:00:00 0,6 -1,1 5 3 - - NW 1007,4 4,8 0,0
13.02.2020 13:00:00 0,6 -1,1 11 6 - - NNW 1007,1 16 1,3
13.02.2020 12:00:00 0,6 -0,6 15 8 - - NNW 1007,2 6 1,8
13.02.2020 11:00:00 0,0 -1,1 8 4 - - NNW 1007,3 1,2 0,0
13.02.2020 10:00:00 0,0 -1,1 11 6 - - NW 1007,0 1,6 0,3
13.02.2020 09:00:00 0,0 -1,7 11 6 - - NW 1007,6 16 0,0
13.02.2020 08:00:00 -0,6 -1,7 11 6 - - NW 1006,7 6 0,0
13.02.2020 07:00:00 -0,6 -1,1 11 6 - - NW 1005,6 13 0,0

tt = temperature
td = dewpoint
ff = wind speed
fx = gusts
dd = wind direction
ppp = reduced air pressure
vv = visibility
rr = precipitation

Next stations